Location: Dreilärchen
(47.9312°N, 8.6113°E)
Time: 03:03:15
(UTC+00:00)

USA 229 - Pass Details

Date: 26 May 2022
Orbit: 938 x 1274 km, 63.4° (Epoch: 24 May)

Event Time Altitude Azimuth Distance (km) Brightness Sun altitude
Rises 01:01:27 0° 315° (NW) 3,996 7.0 -17.5°
Reaches altitude 10° 01:04:17 10° 308° (NW) 3,080 6.3 -17.3°
Maximum altitude 01:10:59 38° 244° (WSW) 1,775 4.5 -16.8°
Enters shadow 01:15:15 22° 193° (SSW) 2,430 5.0 -16.5°
